Weather History for Liberal, KS

Change the Weather History Date:

Monday, March 17, 2014

  Actual Average Record
Temperature  
Mean Temperature 48 °F -  
Max Temperature 71 °F 61 °F 87 °F (2012)
Min Temperature 26 °F 32 °F 17 °F (1958)
Degree Days  
Heating Degree Days 16    
Moisture  
Dew Point 20 °F    
Average Humidity 36    
Maximum Humidity 64    
Minimum Humidity 15    
Precipitation  
Precipitation 0.00 in - - ()
Sea Level Pressure  
Sea Level Pressure 29.68 in    
Wind  
Wind Speed 13 mph (SSW)    
Max Wind Speed 30 mph    
Max Gust Speed 37 mph    
Visibility 10 miles    
Events      
Averages and records for this station are not official NWS values.
T = Trace of Precipitation, MM = Missing Value Source: NWS Daily Summary

Daily Weather History Graph

Daily Weather History Graph

Search for Another Location

Airport:

Trip Planner

Search our weather history database for the weather conditions in past years. The results will help you decide how hot, cold, wet, or windy it might be!

Date:

Astronomy

Mar. 17, 2014 Rise Set
Actual Time 7:51 AM CDT 7:53 PM CDT
Civil Twilight 7:25 AM CDT 8:18 PM CDT
Nautical Twilight 6:55 AM CDT 8:49 PM CDT
Astronomical Twilight 6:25 AM CDT 9:19 PM CDT
Moon 9:09 PM CDT (3/17) 8:10 AM CDT (3/17)
Length of Visible Light 12h 53m
Length of Day
12h 01m
Full, 99% of the Moon is Illuminated
Mar 17
Full
Mar 23
Last Quarter
Mar 30
New
Apr 7
First Quarter
Apr 15
Full

Hourly Weather History & Observations

Time (CDT) Temp. Windchill Dew Point Humidity Pressure Visibility Wind Dir Wind Speed Gust Speed Precip Events Conditions
12:15 AM 30.2 °F 23.4 °F 15.8 °F 55% 30.08 in 10.0 mi SSW 6.9 mph - N/A   Clear
12:35 AM 28.4 °F 21.2 °F 15.8 °F 59% 30.08 in 10.0 mi SSW 6.9 mph - N/A   Clear
12:55 AM 28.4 °F 19.7 °F 15.8 °F 59% 30.08 in 10.0 mi SW 9.2 mph - N/A   Clear
1:15 AM 28.4 °F 20.4 °F 15.8 °F 59% 30.06 in 10.0 mi SW 8.1 mph - N/A   Clear
1:35 AM 26.6 °F 18.2 °F 14.0 °F 59% 30.06 in 10.0 mi SW 8.1 mph - N/A   Clear
1:55 AM 26.6 °F 20.0 °F 14.0 °F 59% 30.04 in 10.0 mi SW 5.8 mph - N/A   Clear
2:15 AM 26.6 °F 19.1 °F 15.8 °F 64% 30.04 in 10.0 mi SW 6.9 mph - N/A   Clear
2:35 AM 26.6 °F 18.2 °F 15.8 °F 64% 30.02 in 10.0 mi SW 8.1 mph - N/A   Clear
2:55 AM 26.6 °F 19.1 °F 14.0 °F 59% 30.01 in 10.0 mi SW 6.9 mph - N/A   Clear
3:15 AM 28.4 °F 19.1 °F 15.8 °F 59% 29.99 in 10.0 mi SW 10.4 mph - N/A   Clear
3:35 AM 30.2 °F 21.9 °F 15.8 °F 55% 29.99 in 10.0 mi SW 9.2 mph - N/A   Clear
3:55 AM 28.4 °F 18.5 °F 15.8 °F 59% 29.98 in 10.0 mi SW 11.5 mph - N/A   Clear
4:15 AM 30.2 °F 21.3 °F 15.8 °F 55% 29.96 in 10.0 mi SW 10.4 mph - N/A   Clear
4:35 AM 28.4 °F 20.4 °F 15.8 °F 59% 29.95 in 10.0 mi SW 8.1 mph - N/A   Clear
4:55 AM 28.4 °F 19.7 °F 15.8 °F 59% 29.93 in 10.0 mi SSW 9.2 mph - N/A   Clear
5:15 AM 28.4 °F 19.7 °F 14.0 °F 55% 29.91 in 10.0 mi SSW 9.2 mph - N/A   Clear
5:35 AM 28.4 °F 19.1 °F 15.8 °F 59% 29.90 in 10.0 mi SSW 10.4 mph - N/A   Clear
5:55 AM 30.2 °F 21.3 °F 15.8 °F 55% 29.89 in 10.0 mi SSW 10.4 mph - N/A   Clear
6:15 AM 30.2 °F 20.2 °F 15.8 °F 55% 29.88 in 10.0 mi SSW 12.7 mph - N/A   Clear
6:35 AM 30.2 °F 20.8 °F 15.8 °F 55% 29.87 in 10.0 mi SSW 11.5 mph - N/A   Clear
6:55 AM 30.2 °F 21.3 °F 15.8 °F 55% 29.87 in 10.0 mi SSW 10.4 mph - N/A   Clear
7:15 AM 30.2 °F 20.8 °F 15.8 °F 55% 29.86 in 10.0 mi SSW 11.5 mph - N/A   Clear
7:35 AM 30.2 °F 20.2 °F 15.8 °F 55% 29.85 in 10.0 mi SSW 12.7 mph - N/A   Clear
7:55 AM 30.2 °F 21.9 °F 15.8 °F 55% 29.84 in 10.0 mi SSW 9.2 mph - N/A   Clear
8:15 AM 32.0 °F 23.6 °F 15.8 °F 51% 29.83 in 10.0 mi SSW 10.4 mph - N/A   Clear
8:35 AM 33.8 °F 25.8 °F 17.6 °F 52% 29.83 in 10.0 mi SSW 10.4 mph - N/A   Clear
8:55 AM 35.6 °F 28.0 °F 19.4 °F 52% 29.82 in 10.0 mi SSW 10.4 mph - N/A   Clear
9:15 AM 37.4 °F 29.8 °F 19.4 °F 48% 29.81 in 10.0 mi SSW 11.5 mph - N/A   Clear
9:35 AM 39.2 °F 32.0 °F 21.2 °F 49% 29.80 in 10.0 mi SSW 11.5 mph - N/A   Clear
9:55 AM 41.0 °F 33.1 °F 21.2 °F 45% 29.80 in 10.0 mi SW 15.0 mph - N/A   Clear
10:15 AM 42.8 °F 35.8 °F 21.2 °F 42% 29.79 in 10.0 mi SSW 13.8 mph - N/A   Clear
10:35 AM 44.6 °F 37.8 °F 23.0 °F 43% 29.77 in 10.0 mi SW 15.0 mph - N/A   Clear
10:55 AM 50.0 °F - 24.8 °F 37% 29.76 in 10.0 mi SW 16.1 mph - N/A   Clear
11:15 AM 53.6 °F - 24.8 °F 33% 29.76 in 10.0 mi SW 16.1 mph - N/A   Clear
11:35 AM 57.2 °F - 28.4 °F 33% 29.75 in 10.0 mi SW 15.0 mph - N/A   Clear
11:55 AM 59.0 °F - 26.6 °F 29% 29.73 in 10.0 mi SW 16.1 mph - N/A   Clear
12:15 PM 60.8 °F - 26.6 °F 27% 29.72 in 10.0 mi SSW 17.3 mph - N/A   Clear
12:35 PM 62.6 °F - 26.6 °F 26% 29.70 in 10.0 mi SSW 16.1 mph 20.7 mph N/A   Clear
12:55 PM 64.4 °F - 26.6 °F 24% 29.69 in 10.0 mi South 19.6 mph - N/A   Clear
1:15 PM 66.2 °F - 26.6 °F 23% 29.66 in 10.0 mi SSW 19.6 mph - N/A   Clear
1:35 PM 68.0 °F - 26.6 °F 21% 29.65 in 10.0 mi South 21.9 mph 25.3 mph N/A   Clear
1:55 PM 69.8 °F - 26.6 °F 20% 29.63 in 10.0 mi South 24.2 mph - N/A   Clear
2:15 PM 69.8 °F - 24.8 °F 18% 29.62 in 10.0 mi South 23.0 mph 29.9 mph N/A   Clear
2:35 PM 68.0 °F - 24.8 °F 20% 29.60 in 10.0 mi SSW 25.3 mph 31.1 mph N/A   Clear
2:55 PM 68.0 °F - 23.0 °F 18% 29.57 in 10.0 mi South 27.6 mph 33.4 mph N/A   Clear
3:15 PM 69.8 °F - 23.0 °F 17% 29.55 in 10.0 mi South 26.5 mph 32.2 mph N/A   Clear
3:35 PM 69.8 °F - 23.0 °F 17% 29.54 in 10.0 mi SSW 26.5 mph 32.2 mph N/A   Clear
3:55 PM 69.8 °F - 23.0 °F 17% 29.52 in 10.0 mi South 25.3 mph 31.1 mph N/A   Clear
4:15 PM 69.8 °F - 23.0 °F 17% 29.51 in 10.0 mi South 26.5 mph 31.1 mph N/A   Clear
4:35 PM 71.6 °F - 24.8 °F 17% 29.49 in 10.0 mi South 25.3 mph 33.4 mph N/A   Clear
4:55 PM 69.8 °F - 21.2 °F 16% 29.47 in 10.0 mi South 24.2 mph 31.1 mph N/A   Clear
5:15 PM 71.6 °F - 21.2 °F 15% 29.46 in 10.0 mi South 26.5 mph 29.9 mph N/A   Clear
5:35 PM 71.6 °F - 21.2 °F 15% 29.44 in 10.0 mi South 24.2 mph 33.4 mph N/A   Clear
5:55 PM 69.8 °F - 21.2 °F 16% 29.43 in 10.0 mi South 24.2 mph 28.8 mph N/A   Clear
6:15 PM 69.8 °F - 21.2 °F 16% 29.43 in 10.0 mi South 20.7 mph 31.1 mph N/A   Clear
6:35 PM 69.8 °F - 21.2 °F 16% 29.41 in 10.0 mi South 18.4 mph 23.0 mph N/A   Clear
6:55 PM 68.0 °F - 19.4 °F 16% 29.39 in 10.0 mi South 17.3 mph - N/A   Clear
7:15 PM 68.0 °F - 19.4 °F 16% 29.37 in 10.0 mi South 20.7 mph - N/A   Clear
7:35 PM 66.2 °F - 19.4 °F 17% 29.36 in 10.0 mi South 21.9 mph 26.5 mph N/A   Clear
7:55 PM 64.4 °F - 19.4 °F 18% 29.35 in 10.0 mi South 18.4 mph - N/A   Clear
8:15 PM 64.4 °F - 17.6 °F 16% 29.34 in 10.0 mi SSE 18.4 mph 24.2 mph N/A   Clear
8:35 PM 62.6 °F - 17.6 °F 18% 29.32 in 10.0 mi SSE 19.6 mph - N/A   Clear
8:55 PM 62.6 °F - 17.6 °F 18% 29.32 in 10.0 mi SSE 26.5 mph 29.9 mph N/A   Clear
9:15 PM 60.8 °F - 19.4 °F 20% 29.31 in 10.0 mi SSE 24.2 mph 32.2 mph N/A   Clear
9:35 PM 59.0 °F - 19.4 °F 22% 29.31 in 10.0 mi SSE 26.5 mph 33.4 mph N/A   Clear
9:55 PM 57.2 °F - 19.4 °F 23% 29.32 in 10.0 mi South 27.6 mph 35.7 mph N/A   Clear
10:15 PM 57.2 °F - 19.4 °F 23% 29.34 in 10.0 mi SSW 18.4 mph 31.1 mph N/A   Clear
10:35 PM 57.2 °F - 19.4 °F 23% 29.33 in 10.0 mi South 20.7 mph 26.5 mph N/A   Clear
10:55 PM 57.2 °F - 19.4 °F 23% 29.32 in 10.0 mi South 29.9 mph 36.8 mph N/A   Clear
11:15 PM 55.4 °F - 19.4 °F 25% 29.32 in 10.0 mi South 19.6 mph 27.6 mph N/A   Clear
11:35 PM 55.4 °F - 19.4 °F 25% 29.32 in 10.0 mi South 17.3 mph - N/A   Clear
11:55 PM 55.4 °F - 19.4 °F 25% 29.33 in 10.0 mi South 16.1 mph - N/A   Clear